Time,TemperatureF,DewpointF,PressureIn,WindDirection,WindDirectionDegrees,WindSpeedMPH,WindSpeedGustMPH,Humidity,HourlyPrecipIn,Conditions,Clouds,dailyrainin,SoftwareType,DateUTC
2013-01-28 00:04:00,37.0,30.0,30.23,NE,50,0.0,6.0,77,0.00,,,0.00,,2013-01-28 05:04:00,
2013-01-28 00:12:00,37.0,30.0,30.23,NE,50,0.0,6.0,77,0.00,,,0.00,,2013-01-28 05:12:00,
2013-01-28 00:22:00,37.0,30.0,30.22,ESE,107,0.0,1.0,77,0.00,,,0.00,,2013-01-28 05:22:00,
2013-01-28 00:32:00,36.0,29.0,30.22,NW,323,0.0,2.0,75,0.00,,,0.00,,2013-01-28 05:32:00,
2013-01-28 00:42:00,36.0,29.0,30.22,NW,323,0.0,2.0,75,0.00,,,0.00,,2013-01-28 05:42:00,
2013-01-28 00:52:00,36.0,29.0,30.23,NW,321,0.0,2.0,76,0.00,,,0.00,,2013-01-28 05:52:00,
2013-01-28 01:02:00,36.0,29.0,30.23,North,0,0.0,0.0,77,0.00,,,0.00,,2013-01-28 06:02:00,
2013-01-28 01:11:00,36.0,29.0,30.23,North,0,0.0,0.0,77,0.00,,,0.00,,2013-01-28 06:11:00,
2013-01-28 01:22:00,36.0,29.0,30.23,North,0,0.0,0.0,77,0.00,,,0.00,,2013-01-28 06:22:00,
2013-01-28 01:32:00,36.0,30.0,30.22,NE,45,0.0,1.0,78,0.00,,,0.00,,2013-01-28 06:32:00,
2013-01-28 01:42:00,36.0,30.0,30.22,NE,45,0.0,1.0,78,0.00,,,0.00,,2013-01-28 06:42:00,
2013-01-28 01:52:00,35.0,28.0,30.22,ESE,123,0.0,1.0,76,0.00,,,0.00,,2013-01-28 06:52:00,
2013-01-28 02:03:00,35.0,28.0,30.22,North,0,0.0,0.0,76,0.00,,,0.00,,2013-01-28 07:03:00,
2013-01-28 02:11:00,35.0,28.0,30.22,North,0,0.0,0.0,76,0.00,,,0.00,,2013-01-28 07:11:00,
2013-01-28 02:22:00,35.0,28.0,30.22,ESE,123,0.0,1.0,75,0.00,,,0.00,,2013-01-28 07:22:00,
2013-01-28 02:32:00,35.0,27.0,30.22,SSW,210,1.0,2.0,73,0.00,,,0.00,,2013-01-28 07:32:00,
2013-01-28 02:42:00,35.0,27.0,30.22,SSW,210,1.0,2.0,73,0.00,,,0.00,,2013-01-28 07:42:00,
2013-01-28 02:51:00,35.0,27.0,30.22,SSW,210,1.0,2.0,73,0.00,,,0.00,,2013-01-28 07:51:00,
2013-01-28 03:01:00,35.0,28.0,30.22,SE,142,0.0,1.0,75,0.00,,,0.00,,2013-01-28 08:01:00,
2013-01-28 03:11:00,35.0,28.0,30.22,SE,142,0.0,1.0,75,0.00,,,0.00,,2013-01-28 08:11:00,
2013-01-28 03:21:00,36.0,26.0,30.23,North,0,0.0,0.0,66,0.00,,,0.00,,2013-01-28 08:21:00,
2013-01-28 03:32:00,37.0,27.0,30.22,SE,124,0.0,1.0,68,0.00,,,0.00,,2013-01-28 08:32:00,
2013-01-28 03:42:00,37.0,27.0,30.22,SE,124,0.0,1.0,68,0.00,,,0.00,,2013-01-28 08:42:00,
2013-01-28 03:52:00,37.0,27.0,30.22,SE,124,0.0,1.0,68,0.00,,,0.00,,2013-01-28 08:52:00,
2013-01-28 04:02:00,37.0,29.0,30.22,ESE,112,0.0,2.0,73,0.00,,,0.00,,2013-01-28 09:02:00,
2013-01-28 04:12:00,37.0,29.0,30.22,ESE,112,0.0,2.0,73,0.00,,,0.00,,2013-01-28 09:12:00,
2013-01-28 04:22:00,38.0,31.0,30.22,East,100,0.0,2.0,76,0.00,,,0.00,,2013-01-28 09:22:00,
2013-01-28 04:32:00,38.0,33.0,30.22,SE,126,0.0,1.0,81,0.00,,,0.00,,2013-01-28 09:32:00,
2013-01-28 04:42:00,38.0,33.0,30.22,SE,126,0.0,1.0,81,0.00,,,0.00,,2013-01-28 09:42:00,
2013-01-28 04:52:00,38.0,33.0,30.22,ESE,110,0.0,1.0,82,0.00,,,0.00,,2013-01-28 09:52:00,
2013-01-28 05:02:00,38.0,34.0,30.23,South,177,1.0,3.0,86,0.00,,,0.00,,2013-01-28 10:02:00,
2013-01-28 05:11:00,38.0,34.0,30.23,South,177,1.0,3.0,86,0.00,,,0.00,,2013-01-28 10:11:00,
2013-01-28 05:21:00,39.0,35.0,30.23,ESE,115,1.0,2.0,87,0.00,,,0.00,,2013-01-28 10:21:00,
2013-01-28 05:32:00,40.0,37.0,30.25,SSW,193,0.0,2.0,89,0.00,,,0.00,,2013-01-28 10:32:00,
2013-01-28 05:42:00,40.0,37.0,30.25,SSW,193,0.0,2.0,89,0.00,,,0.00,,2013-01-28 10:42:00,
2013-01-28 05:52:00,40.0,38.0,30.25,NNE,17,1.0,3.0,94,0.00,,,0.00,,2013-01-28 10:52:00,
2013-01-28 06:02:00,40.0,38.0,30.25,ENE,67,1.0,3.0,94,0.00,,,0.00,,2013-01-28 11:02:00,
2013-01-28 06:11:00,40.0,38.0,30.25,ENE,67,1.0,3.0,94,0.00,,,0.00,,2013-01-28 11:11:00,
2013-01-28 06:22:00,40.0,38.0,30.24,ESE,116,1.0,3.0,94,0.00,,,0.00,,2013-01-28 11:22:00,
2013-01-28 06:32:00,40.0,39.0,30.26,NE,42,1.0,3.0,95,0.00,,,0.00,,2013-01-28 11:32:00,
2013-01-28 06:42:00,40.0,39.0,30.26,NE,42,1.0,3.0,95,0.00,,,0.00,,2013-01-28 11:42:00,
2013-01-28 06:52:00,40.0,39.0,30.26,East,85,0.0,3.0,96,0.00,,,0.00,,2013-01-28 11:52:00,
2013-01-28 07:03:00,40.0,39.0,30.26,ESE,103,0.0,1.0,95,0.00,,,0.00,,2013-01-28 12:03:00,
2013-01-28 07:12:00,40.0,39.0,30.26,ESE,103,0.0,1.0,95,0.00,,,0.00,,2013-01-28 12:12:00,
2013-01-28 07:23:00,41.0,40.0,30.27,South,186,0.0,3.0,97,0.00,,,0.00,,2013-01-28 12:23:00,
2013-01-28 07:33:00,41.0,40.0,30.27,SE,128,0.0,2.0,97,0.00,,,0.00,,2013-01-28 12:33:00,
2013-01-28 07:42:00,41.0,40.0,30.27,SE,128,0.0,2.0,97,0.00,,,0.00,,2013-01-28 12:42:00,
2013-01-28 07:52:00,42.0,42.0,30.27,SE,145,0.0,1.0,100,0.00,,,0.00,,2013-01-28 12:52:00,
2013-01-28 08:03:00,42.0,42.0,30.27,SE,126,1.0,3.0,100,0.00,,,0.00,,2013-01-28 13:03:00,
2013-01-28 08:12:00,42.0,42.0,30.27,SE,126,1.0,3.0,100,0.00,,,0.00,,2013-01-28 13:12:00,
2013-01-28 08:23:00,43.0,43.0,30.27,ESE,119,1.0,3.0,100,0.00,,,0.00,,2013-01-28 13:23:00,
2013-01-28 08:33:00,43.0,43.0,30.29,SSE,161,0.0,1.0,100,0.00,,,0.00,,2013-01-28 13:33:00,
2013-01-28 08:42:00,43.0,43.0,30.29,SSE,161,0.0,1.0,100,0.00,,,0.00,,2013-01-28 13:42:00,
2013-01-28 08:52:00,44.0,44.0,30.29,ESE,109,1.0,4.0,100,0.00,,,0.00,,2013-01-28 13:52:00,
2013-01-28 09:03:00,44.0,44.0,30.29,ESE,104,1.0,3.0,100,0.00,,,0.00,,2013-01-28 14:03:00,
2013-01-28 09:12:00,44.0,44.0,30.29,ESE,104,1.0,3.0,100,0.00,,,0.00,,2013-01-28 14:12:00,
2013-01-28 09:23:00,44.0,44.0,30.29,SE,126,1.0,2.0,100,0.00,,,0.00,,2013-01-28 14:23:00,
2013-01-28 09:33:00,45.0,45.0,30.29,ESE,111,0.0,2.0,100,0.00,,,0.00,,2013-01-28 14:33:00,
2013-01-28 09:43:00,45.0,45.0,30.29,ESE,111,0.0,2.0,100,0.00,,,0.00,,2013-01-28 14:43:00,
2013-01-28 09:52:00,45.0,45.0,30.29,NE,50,0.0,4.0,100,0.00,,,0.00,,2013-01-28 14:52:00,
2013-01-28 10:03:00,46.0,45.0,30.29,East,86,0.0,2.0,97,0.00,,,0.00,,2013-01-28 15:03:00,
2013-01-28 10:13:00,46.0,45.0,30.29,East,86,0.0,2.0,97,0.00,,,0.00,,2013-01-28 15:13:00,
2013-01-28 10:23:00,46.0,45.0,30.30,NNW,335,0.0,2.0,97,0.00,,,0.00,,2013-01-28 15:23:00,
2013-01-28 10:33:00,46.0,45.0,30.30,NNW,335,0.0,2.0,97,0.00,,,0.00,,2013-01-28 15:33:00,
2013-01-28 10:43:00,46.0,45.0,30.30,NNW,335,0.0,2.0,97,0.00,,,0.00,,2013-01-28 15:43:00,
2013-01-28 10:53:00,48.0,47.0,30.30,WNW,298,1.0,4.0,95,0.00,,,0.00,,2013-01-28 15:53:00,
2013-01-28 11:04:00,50.0,47.0,30.30,NW,325,1.0,4.0,89,0.00,,,0.00,,2013-01-28 16:04:00,
2013-01-28 11:13:00,50.0,47.0,30.30,NW,325,1.0,4.0,89,0.00,,,0.00,,2013-01-28 16:13:00,
2013-01-28 11:22:00,50.0,47.0,30.30,NW,325,1.0,4.0,89,0.00,,,0.00,,2013-01-28 16:22:00,
2013-01-28 11:33:00,50.0,47.0,30.30,WNW,295,1.0,5.0,88,0.00,,,0.00,,2013-01-28 16:33:00,
2013-01-28 11:43:00,50.0,47.0,30.30,WNW,295,1.0,5.0,88,0.00,,,0.00,,2013-01-28 16:43:00,
2013-01-28 11:53:00,50.0,47.0,30.30,North,359,2.0,6.0,88,0.00,,,0.00,,2013-01-28 16:53:00,
2013-01-28 12:02:00,50.0,47.0,30.30,NW,321,2.0,6.0,88,0.00,,,0.00,,2013-01-28 17:02:00,
2013-01-28 12:12:00,50.0,47.0,30.30,NW,321,2.0,6.0,88,0.00,,,0.00,,2013-01-28 17:12:00,
2013-01-28 12:23:00,50.0,47.0,30.30,NW,313,2.0,6.0,88,0.00,,,0.00,,2013-01-28 17:23:00,
2013-01-28 12:33:00,50.0,46.0,30.29,NW,314,1.0,4.0,86,0.00,,,0.00,,2013-01-28 17:33:00,
2013-01-28 12:42:00,50.0,46.0,30.29,NW,314,1.0,4.0,86,0.00,,,0.00,,2013-01-28 17:42:00,
2013-01-28 12:53:00,50.0,45.0,30.29,NNW,339,2.0,7.0,84,0.00,,,0.00,,2013-01-28 17:53:00,
2013-01-28 13:03:00,51.0,46.0,30.29,NNW,343,1.0,7.0,83,0.00,,,0.00,,2013-01-28 18:03:00,
2013-01-28 13:12:00,51.0,46.0,30.29,NNW,343,1.0,7.0,83,0.00,,,0.00,,2013-01-28 18:12:00,
2013-01-28 13:23:00,51.0,45.0,30.27,North,6,1.0,5.0,80,0.00,,,0.00,,2013-01-28 18:23:00,
2013-01-28 13:33:00,52.0,46.0,30.26,WSW,252,1.0,5.0,80,0.00,,,0.00,,2013-01-28 18:33:00,
2013-01-28 13:43:00,52.0,46.0,30.26,WSW,252,1.0,5.0,80,0.00,,,0.00,,2013-01-28 18:43:00,
2013-01-28 13:53:00,52.0,46.0,30.25,NNW,332,2.0,9.0,79,0.00,,,0.00,,2013-01-28 18:53:00,
2013-01-28 14:02:00,53.0,46.0,30.24,NW,324,3.0,10.0,78,0.00,,,0.00,,2013-01-28 19:02:00,
2013-01-28 14:12:00,53.0,46.0,30.24,NW,324,3.0,10.0,78,0.00,,,0.00,,2013-01-28 19:12:00,
2013-01-28 14:22:00,53.0,46.0,30.24,NW,324,3.0,10.0,78,0.00,,,0.00,,2013-01-28 19:22:00,
2013-01-28 14:33:00,53.0,46.0,30.24,WNW,301,1.0,6.0,77,0.00,,,0.00,,2013-01-28 19:33:00,
2013-01-28 14:43:00,53.0,46.0,30.24,WNW,301,1.0,6.0,77,0.00,,,0.00,,2013-01-28 19:43:00,
2013-01-28 14:53:00,53.0,46.0,30.23,WNW,294,1.0,4.0,78,0.00,,,0.00,,2013-01-28 19:53:00,
2013-01-28 15:03:00,53.0,46.0,30.24,WNW,296,2.0,7.0,78,0.00,,,0.00,,2013-01-28 20:03:00,
2013-01-28 15:12:00,53.0,46.0,30.24,WNW,296,2.0,7.0,78,0.00,,,0.00,,2013-01-28 20:12:00,
2013-01-28 15:22:00,53.0,46.0,30.23,SW,216,1.0,7.0,78,0.00,,,0.00,,2013-01-28 20:22:00,
2013-01-28 15:33:00,53.0,47.0,30.23,NNW,331,1.0,5.0,79,0.00,,,0.00,,2013-01-28 20:33:00,
2013-01-28 15:42:00,53.0,47.0,30.23,NNW,331,1.0,5.0,79,0.00,,,0.00,,2013-01-28 20:42:00,
2013-01-28 15:52:00,53.0,47.0,30.23,NNW,331,1.0,5.0,79,0.00,,,0.00,,2013-01-28 20:52:00,
2013-01-28 16:03:00,52.0,46.0,30.23,NNW,347,1.0,2.0,80,0.00,,,0.00,,2013-01-28 21:03:00,
2013-01-28 16:12:00,52.0,46.0,30.23,NNW,347,1.0,2.0,80,0.00,,,0.00,,2013-01-28 21:12:00,
2013-01-28 16:23:00,52.0,46.0,30.23,NNE,29,0.0,1.0,81,0.00,,,0.00,,2013-01-28 21:23:00,
2013-01-28 16:33:00,52.0,46.0,30.23,NNE,29,0.0,1.0,81,0.00,,,0.00,,2013-01-28 21:33:00,
2013-01-28 16:43:00,52.0,46.0,30.23,NNE,29,0.0,1.0,81,0.00,,,0.00,,2013-01-28 21:43:00,
2013-01-28 16:52:00,52.0,47.0,30.23,North,4,0.0,2.0,84,0.00,,,0.00,,2013-01-28 21:52:00,
2013-01-28 17:02:00,51.0,46.0,30.23,SSW,205,1.0,3.0,84,0.00,,,0.00,,2013-01-28 22:02:00,
2013-01-28 17:12:00,51.0,46.0,30.23,SSW,205,1.0,3.0,84,0.00,,,0.00,,2013-01-28 22:12:00,
2013-01-28 17:23:00,51.0,46.0,30.23,SSW,205,1.0,3.0,84,0.00,,,0.00,,2013-01-28 22:23:00,
2013-01-28 17:33:00,51.0,46.0,30.23,SSW,205,1.0,3.0,84,0.00,,,0.00,,2013-01-28 22:33:00,
2013-01-28 17:42:00,51.0,46.0,30.23,SSW,205,1.0,3.0,84,0.00,,,0.00,,2013-01-28 22:42:00,
2013-01-28 17:53:00,50.0,46.0,30.24,North,0,0.0,0.0,86,0.00,,,0.00,,2013-01-28 22:53:00,
2013-01-28 18:03:00,50.0,46.0,30.24,North,0,0.0,0.0,86,0.00,,,0.00,,2013-01-28 23:03:00,
2013-01-28 18:12:00,50.0,46.0,30.24,North,0,0.0,0.0,86,0.00,,,0.00,,2013-01-28 23:12:00,
2013-01-28 18:22:00,50.0,46.0,30.24,North,0,0.0,0.0,87,0.00,,,0.00,,2013-01-28 23:22:00,
2013-01-28 18:32:00,49.0,46.0,30.24,East,93,0.0,1.0,88,0.00,,,0.00,,2013-01-28 23:32:00,
2013-01-28 18:42:00,49.0,46.0,30.24,East,93,0.0,1.0,88,0.00,,,0.00,,2013-01-28 23:42:00,
2013-01-28 18:53:00,48.0,45.0,30.25,North,0,0.0,0.0,90,0.00,,,0.00,,2013-01-28 23:53:00,
2013-01-28 19:02:00,48.0,46.0,30.25,East,93,0.0,1.0,92,0.00,,,0.00,,2013-01-29 00:02:00,
2013-01-28 19:12:00,48.0,46.0,30.25,East,93,0.0,1.0,92,0.00,,,0.00,,2013-01-29 00:12:00,
2013-01-28 19:22:00,48.0,46.0,30.25,WSW,237,0.0,1.0,92,0.00,,,0.00,,2013-01-29 00:22:00,
2013-01-28 19:33:00,48.0,46.0,30.24,North,0,0.0,0.0,92,0.00,,,0.00,,2013-01-29 00:33:00,
2013-01-28 19:42:00,48.0,46.0,30.24,North,0,0.0,0.0,92,0.00,,,0.00,,2013-01-29 00:42:00,
2013-01-28 19:52:00,47.0,45.0,30.24,SW,236,0.0,1.0,93,0.00,,,0.00,,2013-01-29 00:52:00,
2013-01-28 20:02:00,48.0,46.0,30.24,SW,232,0.0,1.0,92,0.00,,,0.00,,2013-01-29 01:02:00,
2013-01-28 20:12:00,48.0,46.0,30.24,SW,232,0.0,1.0,92,0.00,,,0.00,,2013-01-29 01:12:00,
2013-01-28 20:23:00,47.0,45.0,30.24,SW,233,0.0,1.0,93,0.00,,,0.00,,2013-01-29 01:23:00,
2013-01-28 20:32:00,47.0,45.0,30.24,SW,233,0.0,1.0,93,0.00,,,0.00,,2013-01-29 01:32:00,
2013-01-28 20:42:00,47.0,45.0,30.24,SW,233,0.0,1.0,93,0.00,,,0.00,,2013-01-29 01:42:00,
2013-01-28 20:52:00,46.0,45.0,30.25,SSW,201,0.0,1.0,95,0.00,,,0.00,,2013-01-29 01:52:00,
2013-01-28 21:02:00,46.0,44.0,30.25,South,188,0.0,1.0,94,0.00,,,0.00,,2013-01-29 02:02:00,
2013-01-28 21:12:00,46.0,44.0,30.25,South,188,0.0,1.0,94,0.00,,,0.00,,2013-01-29 02:12:00,
2013-01-28 21:22:00,47.0,45.0,30.25,SE,128,1.0,2.0,94,0.00,,,0.00,,2013-01-29 02:22:00,
2013-01-28 21:33:00,47.0,45.0,30.25,SE,128,1.0,2.0,94,0.00,,,0.00,,2013-01-29 02:33:00,
2013-01-28 21:42:00,47.0,45.0,30.25,SE,128,1.0,2.0,94,0.00,,,0.00,,2013-01-29 02:42:00,
2013-01-28 21:52:00,47.0,45.0,30.25,SE,134,0.0,1.0,94,0.00,,,0.00,,2013-01-29 02:52:00,
2013-01-28 22:03:00,46.0,44.0,30.24,North,0,0.0,0.0,93,0.00,,,0.00,,2013-01-29 03:03:00,
2013-01-28 22:12:00,46.0,44.0,30.24,North,0,0.0,0.0,93,0.00,,,0.00,,2013-01-29 03:12:00,
2013-01-28 22:22:00,45.0,43.0,30.25,North,0,0.0,0.0,94,0.00,,,0.00,,2013-01-29 03:22:00,
2013-01-28 22:32:00,45.0,43.0,30.24,SE,129,0.0,1.0,93,0.00,,,0.00,,2013-01-29 03:32:00,
2013-01-28 22:42:00,45.0,43.0,30.24,SE,129,0.0,1.0,93,0.00,,,0.00,,2013-01-29 03:42:00,
2013-01-28 22:52:00,46.0,43.0,30.24,SE,126,0.0,1.0,90,0.00,,,0.00,,2013-01-29 03:52:00,
2013-01-28 23:03:00,45.0,42.0,30.24,SE,127,0.0,1.0,89,0.00,,,0.00,,2013-01-29 04:03:00,
2013-01-28 23:12:00,45.0,42.0,30.24,SE,127,0.0,1.0,89,0.00,,,0.00,,2013-01-29 04:12:00,
2013-01-28 23:22:00,45.0,42.0,30.24,SE,127,0.0,1.0,89,0.00,,,0.00,,2013-01-29 04:22:00,
2013-01-28 23:32:00,46.0,41.0,30.24,SSE,152,0.0,1.0,83,0.00,,,0.00,,2013-01-29 04:32:00,
2013-01-28 23:42:00,46.0,41.0,30.24,SSE,152,0.0,1.0,83,0.00,,,0.00,,2013-01-29 04:42:00,
2013-01-28 23:52:00,45.0,40.0,30.24,North,0,0.0,0.0,83,0.00,,,0.00,,2013-01-29 04:52:00,